786  
ASUS42 KTBW 241018  
RWRFL  
FLORIDA REGIONAL WEATHER ROUNDUP  
NATIONAL WEATHER SERVICE TAMPA BAY RUSKIN FL  
500 AM EST FRI NOV 24 2017  
 
NOTE: "FAIR" INDICATES FEW OR NO CLOUDS BELOW 12,000 FEET WITH NO  
SIGNIFICANT WEATHER AND/OR S TO VISIBILITY
.  
 
FLZ001>010-012>015-112-114-115-241100-  
PANHANDLE FLORIDA  
 
CITY SKY/WX TMP DP RH WIND PRES REMARKS
 
PENSACOLA CLEAR 48 33 56 N12 29.98S WCI 43  
PENSACOLA NAS CLEAR 44 34 67 N6 29.98R WCI 41  
CRESTVIEW MOCLDY 42 37 82 CALM 29.99S  
DUKE FIELD FAIR 42 37 82 CALM 29.97S  
VALPARAISO MOCLDY 47 37 68 N8 29.97R WCI 43  
MARY ESTHER CLEAR 45 38 76 N7 29.96S WCI 41  
PANAMA CITY FAIR 48 46 93 CALM 29.96S  
TYNDALL AFB CLEAR 54 53 94 NE6 29.97R  
APALACHICOLA CLOUDY 56 56 100 N9 29.95R  
 
STATION/POSITION SKY/WX TEMP WIND PRES WAVE SWELL
 
AIR SEA DIR/SP/G HT/PER HT/PER  
(F) (DEG/KT/KT) (MB) (FT/S) (FT/S)  
29.2N 88.2W 63 77 20/ 8/ 10 1014.9F  
28.8N 86.0W 67 76 40/ 14/ 17 1012.7F 3/ 6  
PANAMA CITY BEAC 54 69 30/ 6/ 9 1014.9R  
TOWER C 58 20/ 14/ 16 1014.6R  
28.5N 84.5W 67 74 10/ 14/ 17 N/A 4/ 6  
 

 
FLZ011-016>038-118-127-128-134-139-239-241100-  
NORTH FLORIDA  
 
CITY SKY/WX TMP DP RH WIND PRES REMARKS
 
MARIANNA PTCLDY 50 49 96 N3 29.98R  
TALLAHASSEE CLEAR 54 53 97 N3 29.96R  
PERRY CLOUDY 54 51 92 N6 29.95R  
LIVE OAK CLOUDY 54 54 100 N6 29.94S  
CROSS CITY CLOUDY 55 55 97 N7 29.96R  
LAKE CITY CLOUDY 52 50 93 N9 29.92R  
GAINESVILLE LGT RAIN 55 54 96 N7 29.91S  
WILLISTON N/A 59 57 94 N7 29.89S FOG  
PALATKA CLOUDY 55 55 100 N9 29.88R  
MAYPORT NAS CLOUDY 56 55 97 N12 29.88S  
JACKSONVILLE CLOUDY 54 52 93 N7 29.90R  
JAX NAS CLOUDY 55 54 96 N17 29.89S  
JAX CECIL CLOUDY 54 54 100 MISG 29.90R  
PALM COAST DRIZZLE 62 61 97 N14 29.84R  
 
STATION/POSITION SKY/WX TEMP WIND PRES WAVE SWELL
 
AIR SEA DIR/SP/G HT/PER HT/PER  
(F) (DEG/KT/KT) (MB) (FT/S) (FT/S)  
SHELL POINT NOT AVBL  
KEATON BEACH 54 10/ 5/ 7 1013.0R  
CEDAR KEY 57 20/ 8/ 10 1012.4R  
FERNANDINA 54 65 340/ 9/ 12 1013.4R  
30.7N 81.3W 66 N/A 6/ 6 2/11  
MAYPORT 55 66 360/ 10/ 15 1012.3R  
31.4N 80.9W 58 66 30/ 21/ 25 1012.1R 6/ 8 3/ 8  
ST AUGUSTINE 61 68 350/ 25/ 28 1010.8R  
 

 
FLZ040-043>046-052-053-057-058-063-144-241100-  
INTERIOR CENTRAL FLORIDA  
 
CITY SKY/WX TMP DP RH WIND PRES REMARKS
 
OCALA CLOUDY 58 56 93 N9 29.88S  
THE VILLAGES N/A 59 59 100 E7 29.77R FOG  
LEESBURG CLOUDY 61 60 97 N12 29.86R  
SANFORD CLOUDY 64 63 96 NW12 29.82R  
ORLANDO EXEC CLOUDY 66 64 93 N9 29.82R  
ORLANDO INTL CLOUDY 65 65 100 N14 29.82R  
KISSIMMEE LGT RAIN 66 65 96 N7 29.83R  
WINTER HAVEN CLOUDY 66 65 96 N10 29.84R  
LAKELAND CLOUDY 64 64 100 N7 29.83S FOG  
BARTOW CLOUDY 66 66 100 N10 29.84R  
SEBRING CLOUDY 68 65 91 W7 29.82R  
OKEECHOBEE CLOUDY 66 64 94 W7 29.81R  
 

 
FLZ041-047-054-059-064-141-147-241100-  
EAST CENTRAL FLORIDA  
 
CITY SKY/WX TMP DP RH WIND PRES REMARKS
 
DAYTONA BEACH CLOUDY 65 65 100 N14 29.81R  
DELAND CLOUDY 61 61 100 NW13 29.82F FOG  
JFK SPACE CTR CLOUDY 68 68 100 W3 29.78S  
CAPE CANAVERAL CLOUDY 68 66 93 NW7 29.78S  
PATRICK AFB CLOUDY 69 69 100 W6 29.78F  
MELBOURNE CLOUDY 69 68 96 SW3 29.79S  
VERO BEACH CLOUDY 68 67 96 SW5 29.79S  
FT PIERCE CLOUDY 68 68 100 SW5 29.80S  
STUART CLOUDY 70 70 100 SW3 29.82R  
 
STATION/POSITION SKY/WX TEMP WIND PRES WAVE SWELL
 
AIR SEA DIR/SP/G HT/PER HT/PER  
(F) (DEG/KT/KT) (MB) (FT/S) (FT/S)  
28.5N 80.2W 72 78 230/ 10/ 12 1008.6R 4/ 9 3/ 9  
TRIDENT PIER 250/ 3/ 7 N/A  
27.5N 80.2W 78 N/A 3/ 9 2/11  
 

 
FLZ050-056-061-142-242-148-248-149-249-151-251-155-255-  
160-260-241100-  
WEST CENTRAL FLORIDA  
 
CITY SKY/WX TMP DP RH WIND PRES REMARKS
 
CRYSTAL RIVER CLOUDY 59 55 88 NE5 29.88S  
INVERNESS CLOUDY 59 59 100 N9 29.88R  
BROOKSVILLE CLOUDY 62 60 93 N5 29.87R  
CLEARWATER AIR DRIZZLE 63 63 100 N8 29.86R  
ST PETE CLEARW CLOUDY 65 63 93 N10 29.86R  
TAMPA INTL CLOUDY 65 63 93 N9 29.85R  
TAMPA EXEC CLOUDY 64 63 94 N7 29.85S  
PLANT CITY CLOUDY 66 64 94 N5 29.85S FOG  
MACDILL AFB CLOUDY 68 68 100 NW6 29.86R  
PETER O KNIGHT N/A N/A N/A N/A N3 29.85R  
ST PETERSBURG LGT RAIN 65 64 97 N9 29.83R FOG  
SARASOTA LGT RAIN 66 66 100 NW7 29.83R FOG  
VENICE FAIR 70 66 88 NW10G17 29.84S  
 
STATION/POSITION SKY/WX TEMP WIND PRES WAVE SWELL
 
AIR SEA DIR/SP/G HT/PER HT/PER  
(F) (DEG/KT/KT) (MB) (FT/S) (FT/S)  
27.3N 84.2W 77 N/A 5/ 7  
CLEARWATER BEACH 64 70 350/ 17/ 19 1011.2R  
MIDDLE TAMPA BAY 66 350/ 10/ 11 1010.7R  
VENICE 69 71 320/ 15/ 16 1010.3R  
 

 
FLZ066-069-070-075>078-162-262-165-265-241100-  
SOUTHWEST FLORIDA AND KEYS  
 
CITY SKY/WX TMP DP RH WIND PRES REMARKS
 
PUNTA GORDA CLOUDY 68 65 90 W8 29.84F  
FT MYERS CLOUDY 69 67 93 W7 29.83R  
SOUTHWEST INTL CLEAR 68 68 100 NW5 29.83S  
NAPLES PTCLDY 70 68 93 W6 29.83R  
MARCO ISLAND CLOUDY 70 69 97 W5 29.84S  
IMMOKALEE FAIR 68 66 94 CALM 29.84R  
MARATHON CLOUDY 75 69 81 SW6 29.83S  
KEY WEST NAS PTCLDY 74 74 100 W7 29.84S  
KEY WEST INTL PTCLDY 76 70 82 SW9 29.84S  
 
STATION/POSITION SKY/WX TEMP WIND PRES WAVE SWELL
 
AIR SEA DIR/SP/G HT/PER HT/PER  
(F) (DEG/KT/KT) (MB) (FT/S) (FT/S)  
NAPLES 76 310/ 11/ 14 1009.9R  
DRY TORTUGAS 74 30/ 1/ 3 1010.8R  
SAND KEY 77 1011.1R  
MOLASSES REEF 77 80 300/ 7/ 10 1010.5R  
 

 
FLZ067-068-071>074-168-172>174-241100-  
SOUTHEAST FLORIDA  
 
CITY SKY/WX TMP DP RH WIND PRES REMARKS
 
W PALM BEACH MOCLDY 71 67 87 S5 29.81F  
FT LAUDER-EXEC PTCLDY 70 70 100 S5 29.82F  
FT LAUDERDALE MOCLDY 71 70 96 S6 29.81F  
POMPANO BEACH PTCLDY 71 71 100 S5 29.81F  
PEMBROKE PINES MOCLDY 70 68 93 SE6 29.84F  
OPA LOCKA MOCLDY 70 68 93 S6 29.83F  
MIAMI CLOUDY 72 70 93 CALM 29.83F  
WEST KENDALL MOCLDY 70 68 93 S3 29.84S  
HOMESTEAD MOCLDY 69 69 100 SE3 29.83S  
 
STATION/POSITION SKY/WX TEMP WIND PRES WAVE SWELL
 
AIR SEA DIR/SP/G HT/PER HT/PER  
(F) (DEG/KT/KT) (MB) (FT/S) (FT/S)  
PORT EVERGLADES 72 270/ 1/ 3 1009.7F  
VIRGINIA KEY 74 78 210/ 7/ 8 1010.0F  
LAKE WORTH 72 80 180/ 8/ 9 1010.2F  
FOWEY ROCKS 75 79 230/ 10/ 11 1010.8F  
SETTLEMENT POINT 78 240/ 12/ 15 1009.9F  
 

 
 
 
 
CLICK HERE TO GO TO PREVIOUS BULLETINS.

The Nexlab FL Page Main Text Page